Marham, United Kingdom

6:51 AM BST on August 27, 2016 (GMT +0100)
Marham Air Base

Weather History for EGYM - January, 2013

Change the Weather History Date:

Monday, January 7, 2013

  Actual Average Record
Temperature  
Mean Temperature 44 °F -  
Max Temperature 47 °F - - ()
Min Temperature 42 °F - - ()
Degree Days  
Heating Degree Days 20    
Moisture  
Dew Point 43 °F    
Average Humidity 92    
Maximum Humidity 100    
Minimum Humidity 85    
Precipitation  
Precipitation 0.00 in - - ()
Sea Level Pressure  
Sea Level Pressure 30.26 in    
Wind  
Wind Speed 9 mph ()    
Max Wind Speed 14 mph    
Max Gust Speed -    
Visibility 5.8 miles    
Events      
T = Trace of Precipitation, MM = Missing Value Source: Averaged Metar Reports

Daily Weather History Graph

Daily Weather History Graph

Search for Another Location

Airport or City:

Trip Planner

Search our weather history database for the weather conditions in past years. The results will help you decide how hot, cold, wet, or windy it might be!

Date:

Astronomy

Jan. 07, 2013 Rise Set
Actual Time 8:07 AM GMT 4:01 PM GMT
Civil Twilight 7:26 AM GMT 4:42 PM GMT
Nautical Twilight 6:42 AM GMT 5:25 PM GMT
Astronomical Twilight 6:01 AM GMT 6:07 PM GMT
Moon 3:01 AM GMT (1/7) 12:09 PM GMT (1/7)
Length of Visible Light 9h 15m
Length of Day
7h 53m
Waning Crescent, 25% of the Moon is Illuminated
Jan 7
Waning Crescent
Jan 11
New
Jan 18
First Quarter
Jan 27
Full
Feb 3
Last Quarter

Hourly Weather History & Observations

Time (GMT) Temp. Windchill Dew Point Humidity Pressure Visibility Wind Dir Wind Speed Gust Speed Precip Events Conditions
12:50 AM 46.4 °F 42.9 °F 44.6 °F 93% 30.36 in - SSW 6.9 mph - N/A   Overcast
1:50 AM 46.4 °F 42.9 °F 44.6 °F 93% 30.33 in 3.1 mi SSW 6.9 mph - N/A   Overcast
2:50 AM 46.4 °F 42.4 °F 44.6 °F 93% 30.33 in - SSW 8.1 mph - N/A   Overcast
3:50 AM 46.4 °F 41.5 °F 44.6 °F 93% 30.33 in - SSW 10.4 mph - N/A   Mostly Cloudy
4:50 AM 44.6 °F 38.8 °F 44.6 °F 100% 30.30 in 5.0 mi SSW 11.5 mph - N/A   Mostly Cloudy
5:50 AM 45 °F - 43 °F 91% 30.31 in 9 mi SSW 9.2 mph - -   Overcast
5:50 AM 44.6 °F 39.7 °F 42.8 °F 93% 30.30 in 6.2 mi SSW 9.2 mph - N/A   Overcast
6:50 AM 44.6 °F 38.8 °F 42.8 °F 93% 30.27 in 6.2 mi South 11.5 mph - N/A   Overcast
7:50 AM 44.6 °F 39.7 °F 42.8 °F 93% 30.30 in 6.2 mi SSW 9.2 mph - N/A   Overcast
8:50 AM 45 °F - 43 °F 88% 30.30 in 9 mi SSW 10.4 mph - -   Overcast
8:50 AM 44.6 °F 39.2 °F 42.8 °F 93% 30.30 in 6.2 mi SSW 10.4 mph - N/A   Overcast
9:50 AM 44.6 °F 39.7 °F 42.8 °F 93% 30.30 in 6.2 mi SSW 9.2 mph - N/A   Overcast
10:50 AM 46.4 °F 41.5 °F 44.6 °F 93% 30.27 in 6.2 mi SSW 10.4 mph - N/A   Overcast
11:50 AM 47 °F - 44 °F 86% 30.28 in 9 mi SSW 11.5 mph - -   Overcast
11:50 AM 46.4 °F 41.1 °F 44.6 °F 93% 30.27 in 6.2 mi SSW 11.5 mph - N/A   Overcast
12:50 PM 46.4 °F 40.4 °F 44.6 °F 93% 30.24 in 6.2 mi SSW 13.8 mph - N/A   Overcast
1:50 PM 48.2 °F - 44.6 °F 87% 30.24 in 6.2 mi SSW 11.5 mph - N/A   Mostly Cloudy
2:50 PM 47 °F - 44 °F 85% 30.25 in 9 mi SSW 12.7 mph - -   Mostly Cloudy
2:50 PM 46.4 °F 40.7 °F 44.6 °F 93% 30.24 in 6.2 mi SSW 12.7 mph - N/A   Mostly Cloudy
3:50 PM 46.4 °F 41.5 °F 44.6 °F 93% 30.24 in 6.2 mi SSW 10.4 mph - N/A   Mostly Cloudy
4:50 PM 46.4 °F 41.5 °F 42.8 °F 87% 30.21 in 6.2 mi South 10.4 mph - N/A   Mostly Cloudy
5:50 PM 46 °F - 44 °F 88% 30.24 in 7 mi South 10.4 mph - -   Mostly Cloudy
5:50 PM 46.4 °F 41.5 °F 42.8 °F 87% 30.21 in 6.2 mi South 10.4 mph - N/A   Mostly Cloudy
6:50 PM 44.6 °F 39.2 °F 42.8 °F 93% 30.21 in 5.0 mi SSW 10.4 mph - N/A   Haze
7:50 PM 44.6 °F 39.2 °F 42.8 °F 93% 30.21 in 4.3 mi SSW 10.4 mph - N/A   Haze
8:50 PM 44 °F - 43 °F 93% 30.24 in 4 mi SSW 9.2 mph - -   Mist
8:50 PM 44.6 °F 39.7 °F 42.8 °F 93% 30.21 in 3.7 mi SSW 9.2 mph - N/A   Mostly Cloudy
9:50 PM 42.8 °F 37.0 °F 42.8 °F 100% 30.21 in 3.1 mi South 10.4 mph - N/A   Partly Cloudy
10:50 PM 42.8 °F 38.0 °F 42.8 °F 100% 30.21 in - SSW 8.1 mph - N/A   Partly Cloudy
11:50 PM 43 °F - 42 °F 93% 30.22 in 3 mi SSW 9.2 mph - -   Mist
11:50 PM 42.8 °F 37.5 °F 41.0 °F 93% 30.21 in 3.1 mi SSW 9.2 mph - N/A   Mist